Theta_e
335 335 335 335 336 335 335 336 335 334 333 333 333 332 329 329 326 324 323 326 326 332 329 332 341 338 340 339 339 340 341 339 340 340 341 342 344 340 336 337 336 336 337 337 337 338 338 337 337 338 339 340 340 341 342 342 342 343 342 342 342 342 342 340 340 340 339 339 339 339 339 339 339 339
337 337 336 335 335 337 335 336 336 335 334 332 333 332 332 331 327 326 323 325 326 330 331 330 336 341 341 339 339 339 342 340 343 345 343 342 342 336 335 336 336 336 335 334 334 335 336 336 336 336 335 336 336 338 340 341 341 342 341 342 342 343 342 341 340 340 340 339 339 339 339 339 339 338
337 336 335 336 335 336 336 335 335 335 334 333 333 333 332 331 331 328 328 323 331 327 331 334 333 334 338 337 338 338 340 341 344 344 344 343 341 339 340 336 335 334 333 332 332 331 331 332 333 332 333 334 335 337 338 339 339 339 340 340 341 341 342 341 340 341 341 340 340 339 339 339 339 338
336 336 335 335 335 335 335 335 335 335 335 334 333 333 332 332 331 331 328 325 326 330 330 333 335 334 337 338 338 340 338 338 340 342 341 341 339 343 344 339 336 334 332 332 331 330 328 329 331 332 333 334 335 337 337 336 337 337 337 337 337 338 339 338 338 339 339 339 339 338 339 339 339 339
337 336 335 336 335 335 335 335 334 335 335 335 334 333 333 332 331 330 328 326 326 330 330 331 335 335 336 339 336 338 337 339 340 339 340 340 339 339 340 339 336 334 331 330 330 329 329 329 329 330 331 332 334 336 337 336 334 333 333 333 332 332 334 333 333 335 336 336 337 337 338 338 338 338
337 337 335 335 335 335 335 334 334 335 334 334 333 334 333 333 332 332 330 328 329 328 330 333 333 335 335 337 337 337 338 339 339 339 340 339 338 340 340 340 340 335 332 329 328 328 328 328 328 329 330 330 331 332 332 331 329 329 329 328 328 328 327 328 329 332 333 333 335 335 336 336 336 336
337 336 336 335 336 335 334 334 334 335 335 335 335 334 334 332 333 333 333 331 328 329 330 330 332 334 335 336 339 336 335 337 337 337 338 338 338 339 339 339 338 335 332 330 329 328 327 328 327 327 328 329 327 327 326 325 325 324 323 323 325 325 325 325 326 328 329 330 332 333 334 335 335 335
336 336 336 335 336 336 335 334 334 334 336 335 335 335 335 335 334 334 333 334 333 331 330 332 333 334 334 335 335 335 337 336 337 337 338 338 338 339 339 338 338 335 331 330 329 328 327 327 326 325 325 324 323 322 321 321 322 322 321 321 321 321 322 321 322 325 325 325 327 329 330 331 332 330
336 336 336 336 336 336 335 335 333 333 334 334 335 335 335 335 335 334 334 333 333 332 330 332 332 332 333 335 335 336 337 337 338 337 337 337 337 337 337 336 337 333 330 330 329 328 327 327 327 326 325 325 323 322 321 320 320 320 319 319 320 320 321 321 320 321 321 322 323 322 324 326 328 329
337 335 336 336 336 335 334 334 335 334 334 334 334 334 334 334 335 334 334 334 333 332 333 332 333 332 333 335 336 336 337 336 336 335 336 337 337 337 335 335 335 335 334 335 335 331 330 329 327 326 325 324 322 322 321 320 319 318 317 315 314 316 317 317 319 319 319 319 320 321 322 324 325 326
337 336 336 336 336 335 335 335 335 334 334 334 334 335 334 333 333 333 333 333 332 332 331 331 332 332 331 333 333 334 335 336 334 333 333 333 336 335 334 332 334 333 334 334 331 332 331 329 329 323 320 321 322 322 321 320 319 319 317 315 313 314 313 314 316 317 316 317 318 317 317 317 320 322
336 337 336 336 336 336 336 336 335 335 335 335 334 335 334 334 333 333 333 332 331 331 331 330 331 330 332 332 333 333 332 332 332 332 333 330 330 330 332 331 331 333 333 333 332 331 330 329 328 324 324 324 324 322 322 324 324 322 318 316 317 318 315 315 315 315 315 314 314 314 315 315 317 318
336 337 337 337 337 338 338 339 338 337 336 334 333 335 336 335 333 333 332 332 331 331 330 330 331 330 331 332 332 329 329 329 331 332 331 330 331 331 329 331 332 330 330 332 331 332 332 331 332 332 331 330 327 326 325 325 326 323 318 317 319 319 317 316 315 316 315 315 314 313 314 315 316 317
336 336 336 338 340 341 341 341 341 339 338 337 336 336 335 334 333 332 331 331 330 331 329 329 329 327 328 329 328 329 329 329 329 328 328 326 329 328 327 328 331 332 331 330 330 332 331 328 330 330 327 328 328 327 327 326 324 323 320 319 318 318 318 316 315 315 314 314 314 313 312 313 315 315
336 336 337 337 339 341 342 341 343 341 339 339 338 336 334 335 334 333 332 331 332 330 329 329 329 327 327 328 329 327 328 328 328 329 327 325 324 324 323 323 329 332 330 329 327 328 331 329 325 326 326 326 327 326 326 324 323 320 319 319 318 317 317 317 317 316 315 313 313 313 312 312 313 314
337 337 337 337 338 339 340 340 342 343 341 336 335 334 333 332 333 333 335 333 332 331 329 328 327 328 327 330 329 328 327 328 328 327 326 324 325 324 323 324 323 330 328 327 324 325 329 327 324 324 325 325 326 325 323 321 321 319 318 318 317 316 316 316 316 316 315 315 315 315 315 315 315 315
337 337 337 337 337 337 341 341 341 342 342 337 330 332 334 333 331 329 329 330 336 333 330 328 328 328 329 330 329 329 328 329 327 326 324 324 324 325 325 325 326 330 329 326 324 322 325 325 323 322 325 325 326 325 323 321 320 319 317 316 316 315 315 315 315 315 314 314 313 313 312 312 312 312
338 338 337 337 337 338 339 341 341 340 341 342 341 339 338 339 338 332 327 326 327 331 332 331 329 331 332 330 332 332 331 327 329 327 325 326 325 325 325 328 328 330 328 325 322 319 321 324 323 322 324 326 326 327 323 319 318 316 314 314 313 313 313 313 314 313 313 313 312 312 310 310 310 310
339 339 338 338 338 338 337 340 341 341 340 341 341 340 338 338 339 338 336 335 335 334 335 334 333 332 331 333 333 334 333 333 334 333 331 330 329 328 326 324 324 324 326 324 320 317 320 324 321 322 324 325 324 324 319 316 314 314 312 313 313 313 312 313 313 312 312 312 312 311 310 309 309 308
340 340 339 338 337 338 338 336 332 337 340 340 339 339 339 338 338 337 334 330 332 337 336 333 333 333 335 330 335 334 333 333 333 331 330 328 327 325 322 320 320 320 324 324 321 318 318 323 319 320 323 322 320 320 318 315 313 312 312 313 312 312 311 311 311 311 311 312 311 311 309 307 306 306
340 340 339 338 337 337 337 332 324 329 339 338 337 337 336 336 335 334 332 326 326 326 323 323 324 324 324 322 319 318 320 329 329 328 325 323 321 319 317 318 318 319 321 322 322 319 316 321 320 318 319 318 316 316 316 318 314 313 311 311 311 310 310 310 310 310 311 311 311 311 311 309 308 308
340 340 342 340 337 337 337 325 322 324 333 335 335 335 334 332 332 331 332 333 332 323 322 321 321 321 322 321 318 317 315 315 322 326 321 322 320 319 319 317 318 318 320 322 322 318 316 319 317 314 316 315 317 316 317 318 318 316 312 311 311 311 310 310 309 310 310 310 310 310 309 308 308 317
338 338 341 340 337 336 332 320 320 321 330 336 335 334 333 331 331 333 331 332 331 329 328 327 326 325 323 327 329 329 315 316 322 326 326 324 321 319 320 319 317 312 314 320 323 316 315 314 315 313 310 308 312 316 317 319 319 319 319 319 318 313 312 311 309 308 308 309 309 310 309 308 309 319
336 337 339 336 324 323 320 316 315 316 322 333 333 333 332 331 331 332 331 332 332 330 330 327 327 326 327 327 329 329 326 324 326 326 325 324 324 322 320 318 315 311 312 318 321 317 315 313 312 315 310 307 305 313 316 315 317 317 317 317 316 315 315 314 312 310 308 308 309 309 309 308 309 319
335 335 337 339 322 317 315 313 312 313 316 325 333 334 333 333 332 329 331 332 332 330 327 326 325 325 325 325 324 324 324 324 325 326 323 324 324 322 318 314 313 313 315 320 318 317 312 313 311 312 312 310 309 309 313 314 315 315 317 317 315 316 317 317 316 318 313 310 309 308 307 308 309 314
335 335 336 337 324 315 313 311 310 310 314 321 333 333 317 315 320 330 332 333 329 327 325 324 323 323 322 322 322 322 323 324 325 324 323 323 322 321 319 319 315 312 314 321 316 317 313 312 312 311 311 309 309 310 309 311 314 314 316 316 316 316 316 315 316 317 319 320 321 317 317 312 312 311
334 335 335 334 318 313 310 308 308 309 312 320 327 308 309 314 320 328 328 327 325 324 322 322 322 322 321 321 320 321 322 322 323 321 322 322 322 323 322 321 319 318 319 320 319 318 315 313 315 312 310 311 309 309 309 307 309 315 313 313 314 315 316 315 315 316 318 319 321 313 311 311 311 311
334 333 333 328 312 308 304 305 307 309 314 325 305 307 313 317 323 328 326 324 323 322 321 321 321 321 320 320 320 321 323 323 324 323 322 321 319 319 318 318 319 319 319 318 318 317 316 314 314 316 314 310 308 307 306 309 310 310 309 312 313 313 315 317 317 318 320 321 321 322 322 321 323 323
333 324 317 310 306 307 304 306 308 310 312 307 306 309 314 324 326 325 324 323 322 321 321 321 320 320 321 320 321 323 323 322 322 321 321 320 319 317 317 317 317 318 318 318 318 316 316 314 313 314 313 311 309 309 308 307 308 308 310 309 309 314 316 317 317 317 319 320 320 321 320 320 320 321
320 314 311 308 307 307 310 316 321 322 317 311 311 311 318 324 323 323 323 321 321 321 320 319 319 319 319 320 322 322 321 320 321 320 320 318 317 316 316 315 317 316 314 313 313 313 312 313 312 312 310 311 310 308 309 308 308 309 310 309 310 313 315 316 317 318 319 318 319 319 320 321 320 320
321 316 315 316 314 314 315 320 318 318 314 315 315 318 320 322 322 322 323 322 321 321 319 319 319 318 320 320 320 320 320 321 321 318 319 315 315 315 314 312 312 313 317 315 312 313 313 314 314 312 310 310 310 310 311 310 307 308 309 310 311 308 311 314 316 317 318 318 319 319 320 320 319 320
324 320 312 312 318 319 321 321 321 319 318 318 317 317 318 319 321 320 319 320 320 320 319 319 318 318 317 318 320 319 319 319 318 317 317 315 314 313 312 310 311 310 312 313 313 315 314 314 312 312 311 310 308 309 310 309 308 308 308 310 311 312 314 313 314 315 318 319 317 316 317 318 316 317
321 320 321 320 320 321 320 319 319 319 318 318 317 317 316 316 318 320 320 319 318 317 317 317 319 319 318 319 318 319 318 318 316 315 314 314 313 313 310 308 308 308 308 309 311 313 314 313 313 311 311 311 311 310 308 307 309 310 309 310 311 311 312 314 314 315 318 317 315 314 314 315 316 316
321 321 321 321 321 320 319 319 318 318 318 317 315 315 314 315 317 319 319 319 318 317 317 318 318 319 319 319 319 318 318 317 314 312 310 312 312 311 309 308 309 309 309 308 308 309 310 310 311 312 312 313 312 312 311 308 307 309 311 311 311 310 312 314 315 317 317 315 313 311 311 312 314 314
322 321 321 321 321 320 320 319 318 318 317 317 316 315 315 317 317 317 317 317 317 317 317 317 318 318 318 319 318 317 316 315 313 311 310 311 311 309 308 307 307 308 308 307 308 309 307 308 309 307 309 309 308 312 315 313 309 310 312 311 311 310 311 313 314 315 316 315 314 311 310 310 310 312
322 323 322 320 320 319 319 319 319 318 317 318 317 317 316 316 316 316 316 316 316 317 317 317 317 317 317 318 316 314 313 312 312 310 309 309 309 309 308 307 307 308 307 307 307 307 307 307 307 304 303 303 302 302 306 315 314 312 309 308 310 311 312 314 315 315 314 312 312 310 307 306 307 309
322 323 322 320 319 319 319 320 320 319 319 320 320 319 318 318 317 317 318 316 316 317 317 318 317 317 316 314 313 311 311 310 308 308 309 309 308 308 307 307 307 308 306 307 307 307 307 306 306 304 302 301 300 300 303 310 310 312 313 309 311 312 312 313 313 312 312 312 311 309 307 307 306 308
322 321 320 319 319 319 321 320 320 319 320 320 319 319 319 320 319 318 318 317 316 317 316 316 316 314 313 313 311 310 308 308 307 307 308 308 307 306 305 305 305 306 305 306 307 307 307 305 305 305 304 300 299 300 301 306 308 309 309 313 311 311 312 311 310 308 309 310 309 309 308 306 306 306
321 320 319 318 319 319 320 319 321 320 319 319 319 318 318 318 316 316 316 317 317 317 316 315 313 313 312 310 308 308 307 306 306 307 307 306 307 306 306 305 305 306 305 305 306 307 307 305 305 305 304 302 301 302 303 303 304 309 310 306 310 311 312 312 309 309 307 307 307 308 308 309 308 309
321 321 320 319 319 320 321 320 320 320 319 319 319 318 318 316 315 315 315 315 314 314 313 311 311 309 309 308 308 307 306 307 307 307 307 306 306 306 305 305 305 305 305 304 305 306 306 306 306 305 304 305 306 307 307 307 307 309 310 312 305 310 313 312 310 308 306 307 306 304 303 304 303 304
320 319 319 320 319 319 319 318 319 318 317 317 316 314 315 314 312 313 313 312 312 311 310 311 310 310 309 308 307 305 306 306 307 306 306 306 306 306 305 305 306 305 303 304 304 304 305 306 308 307 307 308 308 308 308 308 308 310 311 313 308 306 305 308 312 309 306 307 305 303 301 300 300 300
320 319 318 318 319 319 318 316 315 315 314 313 313 313 311 311 311 311 310 311 312 312 311 310 310 309 308 307 306 306 306 306 306 305 306 305 305 305 305 305 304 304 303 303 303 304 306 309 308 307 307 306 308 308 306 307 307 308 310 311 313 310 308 306 306 306 308 307 305 302 301 300 300 298
320 319 317 316 317 316 315 314 313 313 312 312 311 310 309 310 310 310 310 310 311 310 309 310 309 309 309 307 306 307 306 305 305 305 305 305 305 305 305 305 305 304 304 304 305 306 306 307 306 305 305 305 307 306 306 307 308 309 309 309 310 311 312 309 307 306 306 306 306 305 305 302 298 294
318 318 316 315 315 314 314 313 312 312 312 311 311 310 310 310 310 311 311 310 309 310 309 309 308 308 308 307 306 306 305 305 306 305 305 305 305 305 305 305 305 305 305 304 304 304 305 305 305 304 303 304 304 304 305 307 307 308 308 309 310 309 307 307 308 307 308 308 307 305 305 305 304 303
317 316 315 314 314 314 313 312 312 311 311 311 310 310 311 311 311 310 309 310 309 309 309 308 308 308 307 307 306 305 305 304 305 306 306 306 305 305 304 304 304 304 304 304 302 303 304 304 304 305 304 305 305 305 306 308 308 308 308 308 306 306 305 305 304 304 304 305 306 305 304 305 305 304
Wind_Speed
6 5 6 6 5 4 3 3 3 4 3 4 5 6 7 6 4 3 3 4 4 3 4 3 2 3 2 2 2 3 4 4 4 3 3 3 3 4 7 7 7 8 8 8 8 9 10 10 11 11 11 12 12 12 12 13 13 12 12 12 13 13 13 12 11 11 11 11 11 11 12 13 13 12
5 5 4 4 4 3 3 4 3 4 5 5 5 5 4 5 6 5 5 5 4 3 1 3 3 1 1 0 1 2 2 4 5 2 2 2 3 5 6 6 7 7 7 8 8 8 9 10 10 11 11 11 11 11 11 12 13 13 14 13 13 12 12 11 11 12 12 12 12 12 12 13 13 12
5 6 6 4 4 3 3 3 3 3 4 5 4 3 3 4 5 5 4 3 3 3 4 3 2 2 2 1 1 1 1 2 3 2 1 1 2 4 5 7 8 9 9 8 7 7 8 9 10 10 10 11 11 11 11 12 13 13 13 13 13 13 12 11 11 11 12 12 12 12 12 13 12 12
6 7 7 6 6 4 3 3 3 4 3 4 4 5 5 4 3 4 5 5 6 3 3 2 3 1 2 2 2 2 1 2 2 1 1 1 2 2 3 5 7 7 8 9 9 8 8 7 8 9 10 10 10 10 11 11 12 12 12 12 12 13 13 12 11 11 11 11 12 12 13 13 13 13
6 7 7 7 6 5 5 5 4 3 4 3 3 3 4 4 4 5 5 5 6 3 1 2 1 1 1 2 0 2 2 2 1 1 1 2 3 3 3 3 6 8 8 8 7 7 8 9 9 9 9 9 9 9 10 11 10 10 10 10 10 11 12 12 12 10 10 11 11 12 13 13 13 13
6 6 7 7 6 6 6 5 5 5 4 5 4 4 5 6 5 5 5 5 4 5 1 2 0 2 1 3 1 3 3 2 2 3 3 2 2 2 2 3 4 7 8 6 4 4 5 7 8 9 10 10 11 11 11 11 12 12 12 11 11 10 10 11 11 11 11 11 11 11 12 13 13 14
7 7 7 7 6 4 5 5 6 5 5 5 6 6 5 6 6 5 6 4 4 5 4 1 2 3 3 4 4 0 0 2 2 3 3 3 2 1 2 3 3 6 8 8 8 7 7 6 6 8 8 9 9 10 10 10 11 11 11 11 11 11 11 10 10 11 12 11 12 12 12 12 12 13
8 8 8 6 6 6 7 7 6 6 6 6 6 6 5 6 6 5 5 6 5 4 5 3 4 2 2 3 2 1 2 3 3 3 2 1 3 3 3 3 4 4 7 8 8 7 7 7 7 4 4 6 7 8 8 9 9 9 9 9 10 10 10 10 11 11 11 11 11 12 13 13 13 12
8 8 9 7 7 7 8 7 6 5 7 6 6 7 6 6 5 4 5 5 4 4 6 5 3 2 2 1 1 1 1 2 2 1 2 3 4 5 4 3 4 6 8 9 9 8 8 7 6 5 5 4 4 6 7 7 8 9 10 10 9 9 10 10 10 11 11 11 11 11 11 11 12 12
8 8 9 8 8 9 10 9 7 7 8 6 7 7 6 6 5 5 5 5 5 5 6 5 4 3 3 2 2 3 3 2 3 4 3 3 3 4 6 4 2 2 2 2 3 5 4 4 5 6 4 5 5 6 6 6 8 9 9 9 9 9 10 10 11 11 12 11 11 10 10 11 11 11
8 8 8 8 8 9 9 9 9 8 8 7 8 8 7 7 7 6 5 5 6 6 6 5 5 4 3 3 5 2 1 1 1 1 3 4 3 2 3 7 4 1 3 4 5 3 1 4 4 4 5 5 6 6 7 7 8 8 8 8 8 9 9 10 10 11 11 11 11 11 11 10 9 10
8 8 8 8 9 10 10 10 10 9 9 6 7 7 6 7 7 6 6 5 6 6 6 5 5 4 5 3 2 2 1 0 0 2 2 4 7 6 2 3 6 3 3 5 5 3 2 4 5 5 5 6 7 7 6 6 6 6 6 6 7 7 7 8 9 10 10 11 11 11 11 12 12 11
8 8 8 9 9 10 12 12 10 9 10 8 9 7 7 6 7 6 5 6 6 5 5 5 3 4 4 5 4 3 3 4 4 2 3 3 4 4 6 5 3 4 4 3 4 4 3 3 3 3 4 6 8 7 7 6 6 5 5 6 7 7 8 8 7 8 9 10 11 11 11 11 11 12
9 9 8 8 13 14 14 15 16 15 16 15 11 9 8 9 8 8 7 6 6 6 6 6 5 5 6 6 6 4 4 3 2 2 3 3 3 2 4 5 4 1 2 2 4 4 2 2 3 3 5 6 6 5 5 5 7 8 9 8 8 8 8 8 8 9 8 9 10 10 11 11 11 11
9 8 8 7 11 13 14 14 18 17 18 17 17 14 14 12 11 8 7 7 7 7 7 6 6 7 8 7 5 5 4 3 4 4 3 4 1 3 4 6 3 0 2 2 2 5 3 1 4 4 6 6 5 5 6 9 10 11 11 10 10 10 10 9 9 9 9 9 9 9 10 10 11 11
9 8 8 8 6 8 11 10 11 14 17 17 17 16 14 15 16 14 12 10 7 8 7 7 8 8 8 6 5 4 3 4 3 3 3 4 3 3 4 4 4 0 2 2 4 6 3 3 4 5 5 6 4 6 8 11 10 11 11 11 12 12 12 11 10 10 10 9 9 9 9 9 9 9
11 10 8 7 7 7 14 10 8 8 10 14 16 16 15 16 16 16 15 12 11 9 9 10 9 10 7 6 6 6 5 3 3 2 2 2 3 4 5 6 5 2 2 2 5 6 3 2 4 5 5 5 5 6 8 9 9 9 10 11 13 13 12 13 13 12 11 10 10 11 11 10 10 10
11 11 10 8 7 7 8 9 9 8 7 8 8 9 10 9 11 12 13 13 14 11 10 9 11 8 7 6 3 3 4 4 3 3 4 3 3 4 6 4 4 3 1 5 4 4 3 3 4 6 6 3 4 5 7 8 8 10 11 12 11 12 13 13 13 12 12 12 11 11 12 12 12 12
12 11 9 9 7 7 7 7 9 8 8 7 6 7 8 8 7 7 7 8 7 8 7 7 1 5 4 3 1 3 4 5 4 4 4 3 4 2 1 3 4 5 3 4 2 4 2 3 4 6 6 5 5 5 5 7 10 12 12 12 12 12 13 12 13 13 12 12 12 12 12 13 13 13
10 9 10 10 9 8 8 11 14 12 8 7 7 8 7 7 4 4 2 3 3 1 3 6 8 7 6 6 5 4 5 4 3 2 1 1 1 3 3 4 1 3 2 4 3 3 3 2 5 6 5 5 6 5 4 7 11 12 11 11 12 12 13 13 13 13 13 13 13 13 13 13 13 14
9 8 9 10 9 9 9 12 15 15 11 8 8 8 7 5 4 4 3 6 8 7 5 3 3 8 9 8 8 8 8 5 4 3 2 3 3 3 4 3 2 3 1 1 3 2 5 4 3 4 3 4 6 6 5 5 8 9 10 11 11 12 12 12 13 13 13 13 13 13 13 13 13 14
8 10 16 12 10 10 10 13 15 15 13 9 9 8 6 6 5 4 5 4 4 4 6 5 5 6 8 9 8 8 8 8 7 6 5 3 4 4 4 4 2 2 3 2 3 2 4 3 1 4 3 4 4 4 4 5 5 6 7 11 12 13 12 12 12 13 13 14 14 13 14 13 13 8
8 8 11 15 12 11 10 15 15 16 13 9 9 8 7 7 8 5 7 7 6 3 3 2 4 3 4 5 4 4 6 9 8 6 5 3 4 4 3 3 0 2 3 2 5 3 3 3 3 2 5 5 5 3 4 3 3 4 5 7 8 11 13 13 13 13 13 13 14 14 14 14 11 6
7 8 8 12 15 15 15 15 16 15 16 10 8 7 8 7 8 5 7 6 6 7 5 5 5 4 2 3 2 3 4 5 6 5 3 4 4 3 3 3 2 3 2 1 4 3 2 1 4 1 3 6 6 3 3 4 5 6 7 7 6 10 11 11 10 11 12 12 13 13 13 14 11 6
9 8 8 8 13 16 16 16 16 16 16 12 8 8 7 7 4 7 6 7 8 6 5 5 4 3 2 2 2 2 2 2 3 3 4 4 4 4 3 3 3 4 4 3 4 2 3 1 5 2 3 3 5 7 4 4 5 7 7 6 7 7 6 7 6 8 9 11 12 12 12 13 14 9
8 9 8 8 12 17 15 15 16 16 15 14 8 7 7 10 12 8 6 5 5 4 5 4 4 3 3 3 2 2 1 2 2 3 4 4 4 4 3 4 4 3 4 1 6 3 2 3 5 5 4 3 5 5 8 7 5 6 5 5 6 7 7 7 7 7 7 7 7 8 8 11 12 13
9 8 8 8 14 16 16 15 15 15 15 10 6 10 10 11 12 8 5 5 5 4 4 4 4 3 2 2 2 2 2 2 2 3 3 3 3 3 3 3 4 5 5 5 1 2 4 4 3 4 5 4 7 6 6 6 6 3 5 6 7 7 7 6 7 7 7 7 8 11 11 12 13 14
9 8 8 9 16 16 15 15 15 13 11 7 11 11 11 11 9 5 5 5 5 5 4 4 3 2 2 2 2 2 2 2 2 2 2 3 2 2 2 2 4 5 5 5 4 4 5 5 5 4 4 5 6 7 7 6 7 7 8 7 7 8 7 6 6 7 8 7 7 7 7 8 8 8
8 10 13 14 15 15 14 13 12 10 9 11 11 11 11 9 4 5 4 5 5 5 4 4 3 2 2 3 2 2 1 1 0 1 1 1 1 1 2 2 3 4 3 4 4 3 4 5 6 4 3 4 5 6 6 8 7 8 7 8 8 5 5 7 7 7 7 7 7 7 8 8 9 9
14 14 14 15 14 12 13 11 8 7 7 10 10 9 9 5 4 5 5 5 5 5 4 4 4 3 3 3 2 1 1 1 2 1 1 1 1 1 1 2 2 2 3 3 3 3 3 4 4 4 5 5 5 6 7 7 7 8 7 8 9 8 7 6 5 6 7 7 8 8 9 8 9 9
10 12 12 10 11 10 11 11 11 10 11 8 6 5 5 4 4 4 5 6 6 5 4 3 2 3 3 1 1 1 2 1 1 1 1 0 1 0 1 1 3 3 4 3 2 2 2 3 3 3 4 5 5 6 6 5 8 8 8 8 6 7 7 7 7 8 7 8 8 9 9 9 9 10
10 10 12 13 10 10 9 8 7 6 5 6 6 4 4 5 5 3 4 3 2 2 2 2 3 2 2 2 2 2 1 2 1 1 1 1 1 1 0 1 2 2 3 4 5 4 2 2 2 2 4 5 6 6 5 6 7 8 8 7 6 7 7 8 8 8 8 8 10 10 9 9 10 10
10 10 9 9 10 9 10 9 7 6 6 6 5 5 5 4 5 5 4 5 4 4 4 4 4 4 3 2 2 1 1 2 1 2 1 1 1 1 1 3 3 3 3 4 4 5 5 4 2 3 4 5 6 7 6 7 6 6 6 7 7 7 8 8 8 9 9 10 11 10 11 10 10 10
11 10 10 10 10 10 9 9 8 7 7 6 5 5 5 5 6 5 4 4 4 4 5 4 4 4 3 3 2 2 2 1 1 1 2 2 1 1 2 2 3 2 3 4 4 4 4 4 5 5 4 4 5 7 7 7 8 8 6 6 6 8 8 8 8 9 9 9 11 14 12 11 10 10
11 11 11 10 9 10 9 8 8 8 8 7 6 6 6 6 5 5 4 5 4 4 4 4 3 3 4 3 2 2 2 2 2 2 1 1 1 2 2 3 3 3 3 4 4 3 3 4 4 5 4 4 6 4 7 8 6 7 6 6 6 7 8 8 9 9 9 10 9 11 12 12 11 10
9 9 10 10 9 8 8 8 7 7 8 7 8 7 8 7 5 6 6 6 5 5 5 5 4 4 4 3 3 3 3 2 1 1 1 1 2 2 2 3 3 3 3 3 4 4 3 4 3 4 5 6 5 6 5 6 9 6 7 8 6 6 7 9 9 9 9 9 9 10 12 13 13 12
10 9 9 10 8 9 8 7 8 8 8 8 9 8 7 6 6 6 5 6 5 5 5 5 4 4 3 3 3 3 3 3 2 1 1 1 1 2 2 2 3 3 3 4 3 4 2 3 2 2 4 6 6 7 7 3 6 7 5 7 8 7 8 9 9 11 11 10 11 10 12 13 14 13
10 9 9 8 9 9 8 9 8 8 8 6 5 5 5 4 3 4 4 5 5 5 5 5 4 4 4 4 4 3 2 2 1 2 2 2 2 2 2 3 3 3 3 4 4 4 2 3 3 2 2 4 6 7 8 4 3 5 5 4 7 8 8 8 11 13 13 10 11 11 11 13 14 15
9 9 9 9 9 8 8 8 8 6 6 6 5 5 5 4 4 4 5 5 5 5 5 4 4 4 4 3 3 4 3 3 3 3 2 2 3 3 3 3 3 3 3 4 3 3 3 3 3 2 2 4 6 7 7 7 7 7 7 9 7 7 7 7 11 13 13 12 12 11 12 14 17 19
9 9 8 8 8 8 7 6 6 6 6 6 6 5 5 5 5 5 5 5 5 5 5 5 4 4 3 3 3 2 2 3 3 3 3 3 3 4 3 3 4 3 3 4 4 3 4 4 4 4 5 6 7 8 8 8 9 8 8 10 10 8 7 7 10 12 13 11 12 15 17 16 16 15
8 8 7 7 7 7 6 6 5 5 5 5 4 5 4 4 5 5 5 6 6 6 5 4 4 4 4 3 3 4 3 2 2 2 3 3 3 4 4 4 3 2 2 4 4 4 5 5 6 9 8 7 7 6 5 5 6 6 6 6 5 7 10 8 7 9 10 11 12 14 16 17 18 18
9 8 8 7 8 7 6 6 6 5 5 5 5 6 5 5 5 8 7 7 6 6 5 4 4 3 3 3 3 3 3 4 4 3 3 4 4 4 4 4 3 2 2 4 4 5 6 6 6 5 4 4 3 3 5 6 8 8 8 7 7 6 5 7 9 9 9 9 11 14 15 14 12 15
7 9 8 6 5 6 6 6 6 6 6 6 6 6 6 5 5 6 5 5 5 4 4 3 3 2 2 2 2 3 3 4 4 4 4 4 4 4 4 3 3 3 3 4 4 5 6 5 4 4 4 2 2 2 5 7 7 7 8 8 9 9 8 8 9 10 12 13 12 10 10 11 13 14
7 8 6 6 6 6 7 7 7 6 6 6 6 6 6 6 6 6 5 5 5 4 4 3 2 2 3 2 2 2 3 4 3 4 4 4 5 4 4 3 3 3 3 3 4 4 4 5 3 3 4 4 3 4 6 6 7 7 8 8 8 9 10 10 9 9 9 9 11 11 14 14 14 17
6 6 6 6 6 6 6 7 7 7 7 6 6 6 6 5 5 5 4 4 4 4 3 3 3 2 2 3 3 4 5 4 3 3 3 3 4 4 4 4 3 3 3 2 3 4 4 5 4 2 3 4 3 4 6 6 7 8 8 8 10 9 9 9 10 11 11 10 9 12 14 16 17 18
Wind_Direction
191 191 187 199 206 199 168 174 178 174 158 175 171 176 173 169 169 190 241 260 240 261 193 223 247 172 192 224 217 225 224 239 233 219 222 228 232 251 252 253 253 255 258 256 256 260 265 270 274 273 273 278 281 283 286 287 287 282 278 274 269 264 263 263 265 267 269 266 263 263 267 270 271 272
184 191 180 187 211 179 170 190 172 166 177 166 178 190 186 160 186 193 216 260 209 248 239 216 250 336 338 136 204 199 217 217 229 206 198 212 230 251 273 288 284 276 270 272 274 272 270 272 272 272 273 275 277 277 276 278 280 279 281 280 276 269 264 260 260 263 266 268 266 264 265 267 267 267
178 189 195 181 202 173 189 173 166 166 163 174 167 168 150 188 184 180 175 239 272 185 247 238 225 283 353 21 230 200 200 213 203 186 174 219 279 295 296 289 294 297 298 291 280 269 268 269 271 274 274 273 275 275 274 273 274 274 277 280 281 280 276 269 265 264 263 264 265 264 264 263 263 261
189 190 197 188 188 179 170 169 175 177 178 161 167 168 176 179 162 148 165 209 255 218 230 276 299 254 290 314 284 284 239 181 142 78 77 252 261 262 257 260 261 269 274 282 289 295 289 270 263 265 268 270 269 262 264 265 266 267 271 276 280 283 284 283 276 269 265 261 262 264 263 262 262 260
191 197 204 196 184 165 172 175 170 176 172 164 166 163 161 168 168 167 181 215 252 280 227 259 258 18 314 268 247 299 300 333 51 118 188 192 205 215 221 228 226 228 231 240 255 272 286 294 293 287 279 276 275 273 275 281 281 281 280 279 279 281 284 287 286 281 271 266 263 262 263 263 262 262
198 195 204 205 177 170 176 168 176 177 171 173 169 179 177 182 181 194 175 212 213 255 301 256 229 248 186 252 206 242 280 317 348 305 290 236 218 249 282 287 292 304 307 305 279 253 263 279 285 285 289 291 292 292 293 294 295 297 298 299 295 289 284 283 284 283 281 279 271 263 259 256 259 261
190 199 205 209 178 156 173 184 187 179 181 181 183 188 185 192 190 187 198 159 215 228 253 220 255 227 210 207 247 94 351 252 242 262 257 276 287 272 273 280 282 285 288 292 294 303 305 283 259 266 277 283 285 286 285 284 284 286 290 294 295 295 293 289 285 281 282 281 278 273 268 259 255 254
190 200 204 210 175 167 187 192 189 189 179 183 191 193 195 195 192 190 184 202 201 193 223 232 214 211 194 233 263 259 248 255 246 232 267 257 274 277 258 252 261 251 251 261 267 272 272 281 294 280 241 239 256 266 270 273 277 281 283 282 283 284 285 284 283 280 277 272 269 267 265 264 263 258
197 200 210 198 176 177 196 198 198 179 188 189 188 199 190 194 196 182 189 199 196 187 208 225 227 210 225 210 193 202 234 245 241 218 295 303 299 295 282 269 259 264 249 248 247 236 231 240 257 280 298 297 268 253 257 266 274 279 280 280 280 283 284 285 285 284 281 278 276 274 271 267 266 268
197 205 207 196 182 186 200 207 188 183 195 184 197 199 191 192 185 191 190 192 200 211 224 218 234 201 219 195 195 187 190 220 294 322 330 314 299 301 308 282 234 265 256 244 219 205 205 227 248 247 251 266 270 272 268 257 250 251 258 269 277 279 279 280 283 284 285 284 279 272 269 269 268 268
199 204 203 197 192 196 205 206 189 186 191 194 202 198 197 187 186 192 191 188 197 207 220 224 226 235 232 215 236 199 203 132 212 299 328 306 247 214 273 301 301 203 273 259 250 245 242 277 278 281 281 272 264 269 271 265 263 262 257 249 246 252 261 268 270 272 274 276 278 280 278 272 265 261
202 201 201 200 197 204 207 204 203 186 195 192 202 201 197 189 187 194 189 189 197 207 216 221 216 215 225 213 236 94 143 190 207 185 211 279 300 303 248 220 285 306 305 301 303 310 318 297 280 283 283 281 287 287 284 276 271 263 256 268 278 277 264 253 256 263 266 269 271 273 275 278 279 275
202 201 205 205 203 206 205 201 203 197 197 190 204 202 185 187 193 195 187 192 197 209 214 225 211 214 213 223 200 191 186 200 220 166 186 241 258 283 303 290 243 240 265 278 291 295 306 297 295 304 306 305 311 305 304 292 268 260 281 289 288 285 288 286 271 254 254 260 263 263 263 264 265 267
203 207 206 207 210 205 198 203 206 206 210 208 207 198 188 196 199 203 199 195 199 198 206 217 197 204 217 219 217 195 195 179 153 186 193 226 248 276 271 276 272 244 225 258 279 284 281 261 282 292 295 296 306 303 306 300 306 304 301 299 297 295 290 283 279 278 269 258 254 258 261 263 264 264
205 210 207 208 210 206 203 210 212 211 211 216 218 211 199 198 198 200 200 207 191 197 214 212 206 216 226 224 191 200 194 193 189 208 198 231 245 259 283 288 297 180 199 246 266 278 285 237 265 268 275 282 288 293 288 296 302 303 302 302 300 297 292 289 286 279 274 272 266 256 249 248 252 258
213 207 203 205 199 207 207 206 212 213 215 216 218 217 212 211 211 205 200 204 203 203 214 215 217 211 220 220 170 186 176 214 210 195 200 203 209 234 245 250 264 175 143 232 264 272 257 253 249 258 261 272 270 274 279 285 286 288 292 297 301 301 301 297 290 287 286 285 280 279 277 272 266 260
212 211 208 201 200 212 211 204 205 209 218 216 216 218 219 221 220 222 222 213 204 195 204 214 219 208 196 188 192 180 189 153 210 170 204 192 199 226 252 254 263 266 168 269 271 276 277 267 275 276 262 265 267 272 261 258 264 273 283 289 292 297 299 298 298 297 294 293 292 292 291 287 283 278
210 209 207 200 202 196 199 207 205 204 207 210 208 215 221 225 231 229 226 226 225 209 207 208 224 208 178 194 138 136 136 157 202 197 231 206 235 228 240 260 263 274 186 264 282 273 277 271 288 287 284 268 267 262 273 282 281 281 284 288 292 292 291 291 291 292 293 292 292 290 289 289 288 288
210 208 201 200 199 181 192 196 200 198 201 200 204 208 214 221 215 204 211 219 220 216 211 217 243 72 58 59 244 210 191 190 208 210 229 233 246 272 348 289 254 267 242 213 199 274 299 274 278 276 288 303 296 287 295 284 284 288 291 293 292 289 288 288 289 290 290 290 289 288 288 289 289 288
208 200 193 199 197 186 188 194 195 196 188 192 200 205 214 216 190 186 173 190 210 171 146 145 159 148 169 198 206 196 209 202 182 164 115 51 232 247 255 262 258 267 212 199 217 262 278 269 278 280 288 297 285 284 277 281 279 283 287 286 283 284 285 286 287 288 288 288 287 286 286 285 285 284
199 191 192 193 192 187 189 188 190 197 182 193 194 202 204 199 182 178 116 115 147 152 106 107 160 169 183 188 180 180 188 181 146 130 164 224 196 203 247 249 247 251 263 222 198 255 284 268 265 281 280 281 284 286 280 275 279 280 285 284 282 281 282 283 285 287 287 287 286 286 286 285 285 286
194 194 190 184 183 184 194 182 189 193 186 192 197 191 183 184 196 183 150 143 134 126 144 182 239 222 191 182 183 186 181 163 154 158 199 199 172 226 237 254 226 284 294 260 157 212 255 295 238 280 275 275 249 266 268 275 280 287 289 290 290 291 290 291 291 291 290 289 288 287 286 286 287 286
194 192 191 183 183 188 181 176 189 188 184 190 181 183 172 190 208 188 160 159 167 157 173 147 150 193 169 158 149 144 161 170 182 191 214 150 190 225 222 235 247 297 264 228 168 243 269 292 285 302 305 289 277 241 270 280 291 287 284 289 294 294 296 297 295 289 287 286 287 287 287 286 289 282
194 185 187 188 183 181 175 180 182 184 182 182 173 170 187 186 211 150 167 167 160 168 171 156 169 153 158 133 129 133 158 182 198 202 197 185 190 196 209 218 222 264 259 182 176 238 285 277 282 194 265 295 303 300 270 284 292 292 291 292 290 293 295 296 292 287 280 280 281 283 283 283 281 280
184 179 184 182 181 180 178 179 183 182 184 172 167 171 189 193 129 140 158 167 164 151 144 147 153 153 150 136 139 164 178 198 199 189 186 191 190 188 204 227 225 250 251 248 155 216 263 283 285 273 264 229 263 291 291 290 284 284 287 291 292 293 294 293 295 295 292 285 277 272 272 271 272 262
176 179 174 179 182 179 177 182 183 179 175 170 161 174 139 123 142 150 148 145 132 134 137 148 161 165 173 170 166 169 184 212 193 179 180 186 202 205 218 204 216 243 261 209 152 198 239 263 260 273 273 270 273 272 295 291 277 278 284 286 282 282 286 290 293 290 287 285 289 283 282 275 268 263
180 164 168 169 168 176 178 178 177 174 166 156 144 137 140 147 147 143 128 131 131 136 150 157 171 181 175 168 156 170 193 194 191 190 185 194 201 223 231 230 224 241 262 285 230 219 215 253 251 259 275 275 286 289 278 290 295 278 283 285 292 290 283 283 280 281 283 285 284 284 276 262 258 258
159 153 161 166 173 174 172 174 168 159 157 143 136 141 143 143 141 129 135 135 147 147 158 172 175 181 169 150 158 188 189 172 164 191 201 213 209 234 254 236 245 241 258 263 260 229 225 243 266 258 252 272 281 286 288 275 274 286 296 291 284 279 279 276 275 276 278 278 281 284 288 293 286 278
161 166 157 152 162 167 164 150 136 135 128 123 136 137 144 144 141 142 146 154 147 160 172 182 181 183 176 170 182 162 148 153 159 211 208 181 192 215 246 249 241 249 248 254 254 238 223 233 256 273 269 250 253 263 267 277 290 291 290 300 296 279 286 286 279 273 276 279 281 283 283 286 288 284
149 147 144 146 143 135 138 135 144 149 137 125 123 133 146 152 147 154 150 158 161 174 179 178 191 174 156 177 184 123 113 167 226 192 214 178 188 125 349 335 292 237 219 231 250 229 222 227 240 248 262 258 243 262 266 283 286 285 284 273 273 293 278 269 274 278 279 280 281 283 285 284 280 281
128 130 132 140 142 136 134 125 122 119 123 121 132 146 159 166 168 164 172 164 173 174 172 180 160 158 169 101 127 174 175 206 199 179 190 264 282 47 50 353 281 295 300 304 283 250 249 245 238 221 249 275 276 262 275 276 280 281 277 273 281 281 290 295 288 285 284 285 285 282 280 279 280 272
127 117 112 111 116 124 118 118 123 124 137 143 147 153 161 169 174 161 138 129 140 151 152 140 140 144 132 160 182 174 202 216 175 146 164 191 208 89 93 262 261 273 294 301 306 300 283 261 267 244 243 257 275 281 281 269 268 273 277 281 280 278 280 287 292 289 285 291 295 291 282 281 281 284
117 118 128 134 136 138 136 134 139 141 149 153 153 157 164 164 170 175 178 181 180 164 160 165 169 159 167 181 181 181 207 219 156 123 133 162 182 107 167 245 270 279 287 292 292 298 309 313 293 277 265 256 241 252 266 283 270 267 278 287 295 291 294 290 293 295 299 302 300 296 293 283 275 273
130 139 144 151 151 148 147 148 152 159 165 162 164 170 168 173 184 184 185 188 173 169 180 172 168 168 172 188 179 181 200 162 133 129 181 153 160 188 210 248 260 249 249 271 284 291 304 306 313 301 273 252 242 235 235 243 264 278 280 292 293 294 292 296 294 294 294 299 301 303 294 288 279 272
139 149 152 155 155 155 152 155 162 165 168 169 168 173 178 190 185 187 188 187 172 177 177 181 183 168 184 191 175 184 186 183 150 140 127 125 155 208 230 248 264 271 276 288 289 290 297 296 313 316 311 324 323 296 205 210 258 266 283 277 277 288 295 298 300 299 297 296 292 293 293 291 284 280
146 154 154 156 156 151 153 164 163 162 165 165 171 168 178 191 190 186 195 179 181 180 183 185 185 186 188 187 174 175 163 167 167 142 139 154 191 211 220 239 253 270 273 273 282 287 293 291 313 326 324 322 319 311 318 191 203 273 294 298 296 290 293 298 299 298 296 297 298 295 292 292 292 290
148 160 161 159 153 155 164 163 169 169 167 170 174 179 178 180 191 196 176 161 178 187 188 184 191 186 179 167 159 158 159 156 167 147 193 182 219 227 253 255 254 261 279 274 271 281 271 290 295 309 313 316 313 304 286 288 259 242 249 280 294 302 304 304 302 305 306 300 295 292 288 292 289 287
154 155 161 154 155 164 164 168 167 170 173 167 161 169 186 179 164 169 156 172 186 186 183 193 184 177 174 161 159 152 140 142 132 183 203 196 217 234 234 260 273 275 278 280 279 278 272 270 280 273 270 297 305 299 304 296 285 280 205 232 285 295 299 299 310 314 312 304 294 291 292 292 290 299
148 152 153 157 161 163 171 172 174 164 156 159 170 178 175 172 164 159 174 186 182 183 179 181 180 164 148 147 149 152 158 161 187 198 195 203 221 239 244 242 262 258 268 281 281 277 274 276 279 275 253 279 276 281 290 295 287 286 291 279 275 280 281 296 308 311 312 305 301 300 294 293 291 288
149 148 150 153 160 170 174 161 162 154 160 171 174 169 165 170 169 167 174 178 179 176 168 156 139 131 134 151 155 148 160 180 189 189 198 214 218 230 242 244 252 264 266 273 285 291 290 290 294 305 300 277 269 270 278 277 276 272 267 273 242 226 284 301 304 311 309 300 307 313 311 312 311 315
142 143 149 153 153 169 160 155 153 150 156 158 150 160 165 148 156 171 176 174 170 158 145 130 134 148 158 162 170 172 178 178 182 199 212 227 234 236 238 239 251 232 265 280 280 289 291 292 301 303 290 279 280 275 254 249 278 294 300 298 293 249 244 247 275 302 296 299 309 311 312 316 317 317
146 148 141 148 162 163 153 145 146 150 146 150 153 152 150 159 171 161 165 166 154 138 123 135 143 160 162 159 164 160 178 186 187 202 214 221 232 235 233 229 248 246 248 279 289 289 289 293 304 303 294 296 290 291 295 300 298 303 302 305 298 289 269 258 254 260 275 292 308 313 314 312 316 315
138 137 132 149 148 145 141 139 145 146 146 146 147 147 148 147 143 154 160 165 161 147 139 132 132 151 163 162 172 177 185 199 195 199 206 221 234 244 244 241 242 255 254 267 274 277 284 291 302 312 309 300 291 285 283 292 294 293 300 310 316 319 313 302 290 287 283 277 264 263 283 299 309 307
132 127 137 148 151 149 148 152 151 147 145 150 150 149 148 149 160 172 172 168 162 152 129 128 133 155 189 191 179 182 204 208 189 193 205 218 232 241 242 241 242 250 258 264 285 289 295 300 304 317 316 313 313 297 286 296 297 305 308 306 310 318 319 323 317 304 286 282 288 284 279 277 277 277
127 132 144 150 150 144 149 150 150 148 143 143 146 148 152 158 165 169 176 166 151 127 125 145 160 182 189 189 185 200 206 197 194 198 216 232 235 238 239 242 240 248 259 274 293 297 306 309 304 299 280 290 283 277 283 283 294 304 307 311 318 321 321 322 321 319 317 310 300 300 299 301 302 305